This is the latest recevied weather packets stored in our database for station/object KD7CIH. If no packets are shown the sender has not sent any weather packets the latest 10 day(s).
| Time | Temp. | Humidity | Pressure | Rain* | Wind** | Luminosity | Snow |
|---|---|---|---|---|---|---|---|
| 1777947950 | 13.89° C | 34% | 1003 hPa | 0 mm | - | - | - |
| 1777947649 | 14.44° C | 34% | 1002.8 hPa | 0 mm | - | - | - |
| 1777947349 | 14.44° C | 34% | 1002.6 hPa | 0 mm | - | - | - |
| 1777947139 | 14.44° C | 33% | 1002.5 hPa | 0 mm | - | - | - |
| 1777946737 | 15° C | 32% | 1002.3 hPa | 0 mm | - | - | - |
| 1777946431 | 15.56° C | 31% | 1002 hPa | 0 mm | - | - | - |
| 1777946132 | 16.11° C | 30% | 1002.2 hPa | 0 mm | - | - | - |
| 1777945832 | 16.67° C | 24% | 1002 hPa | 0 mm | - | - | - |
| 1777945637 | 16.67° C | 24% | 1002 hPa | 0 mm | - | - | - |
| 1777945231 | 16.67° C | 24% | 1002.2 hPa | 0 mm | - | - | - |
| 1777945037 | 16.67° C | 24% | 1002.3 hPa | 0 mm | - | - | - |
| 1777944632 | 16.67° C | 24% | 1002.2 hPa | 0 mm | - | - | - |
| 1777944331 | 17.22° C | 23% | 1002.3 hPa | 0 mm | - | - | - |
| 1777944031 | 17.22° C | 22% | 1002.2 hPa | 0 mm | - | - | - |
| 1777943731 | 17.22° C | 22% | 1001.9 hPa | 0 mm | - | - | - |
| 1777943431 | 17.78° C | 22% | 1001.8 hPa | 0 mm | - | - | - |
| 1777943237 | 17.78° C | 22% | 1001.8 hPa | 0 mm | - | - | - |
| 1777942830 | 17.78° C | 22% | 1001.8 hPa | 0 mm | - | - | - |
| 1777942530 | 17.78° C | 21% | 1001.8 hPa | 0 mm | - | - | - |
| 1777942335 | 18.33° C | 21% | 1001.7 hPa | 0 mm | - | - | - |
| 1777942035 | 18.89° C | 20% | 1001.7 hPa | 0 mm | - | - | - |
| 1777941628 | 18.89° C | 18% | 1001.7 hPa | 0 mm | - | - | - |
| 1777941330 | 19.44° C | 18% | 1001.5 hPa | 0 mm | - | - | - |
| 1777941031 | 19.44° C | 18% | 1001.7 hPa | 0 mm | - | - | - |
| 1777940729 | 20° C | 17% | 1001.5 hPa | 0 mm | - | - | - |
* Rain latest hour (hover to see other rain measurements)
** Current wind speed in m/s (hover to see current wind gust speed)